Location: Sternwarte Stuttgart
(48.7824°N, 9.1965°E)
Time: 13:36:58
(UTC+00:00)

ISS - Pass Details

Date: 23 April 2025
Orbit: 416 x 420 km, 51.6° (Epoch: 15 May)

Event Time Altitude Azimuth Distance (km) Brightness Sun altitude
Exits shadow 03:16:32 13° 219° (SW) 1,308 -1.8 -9.8°
Maximum altitude 03:19:15 43° 149° (SSE) 599 -3.0 -9.4°
Drops below altitude 10° 03:22:28 10° 76° (ENE) 1,498 0.4 -8.9°
Sets 03:24:37 0° 70° (ENE) 2,365 2.1 -8.6°
